Powrót do katalogu

CRRES DEB

CANISTER

AktywnyHEO
NORAD 21589·DEBRIS·🇺🇸 United States

Wystrzelony Jul 25, 1990 z Cape Canaveral Space Force Station

Loading…

Następne Przeloty (najbliższe 24 godziny)

TLE

ŚwieżeSource: Space-Track

Epoka: Sep 14, 2026, 09:06 UTC

1 21589U 90065E   26257.37953963  .00000622  00000-0  86217-3 0  9999
2 21589  17.6976 222.8939 6939785  21.2852 357.0754  2.66561943133577

Śledź CRRES DEB w czasie rzeczywistym z AllMySat

Download on the App Store